Погода в Паданге

Индонезия     0°56′12″N   100°21′50″E
темп.,
°C
ветер,
м/с
пор.,
м/с
влажн.,
%
обл.,
%
осадки,
мм/ч
давл.,
гПа
погр.,
м
2 марта, вт
вт201:00+28вюв2271100 0.1 1012170
04:00+27в2271100 0.1 1010150
07:00+27св227099 0.1 1012156
10:00+28сз117048 0.5 1012257
13:00+29юз337642 1.3 1010565
16:00+28зюз3378100 2.8 1007583
19:00+27ююв2376100 7.4 1010343
22:00+26вюв5581100 0.9 1012278
3 марта, ср
ср301:00+25св5584100 2.9 1013263
04:00+25всв3376100 1.1 1010259
07:00+26ссв3475100 1.1 1012286
10:00+27ссв3474100 0.0 1013277
13:00+28з446873 0.0 1010272
16:00+28зсз336870 1.6 1007437
19:00+28ссз126753 1.8 1010438
22:00+28св2273100 0.1 1012291
4 марта, чт
чт401:00+27всв227394 1.4 1012132
04:00+27в2271100 0.4 1010173
07:00+27в2267100 0.4 1011166
10:00+29ююз116167 0.0 1012244
13:00+29юз546947 0.0 1010455
16:00+29ююз567337 0.1 1007466
19:00+28ююв347436 1.3 1009312
22:00+28юв447715 0.3 1011260
5 марта, пт
пт501:00+27вюв34768 0.4 1011270
04:00+26в22760 0.1 1010182
07:00+26в337333 0.4 1011198
10:00+28зсз116633 0.1 1013255
13:00+29ююз557317 0.1 1010503
16:00+29юз227172 0.1 1007544
19:00+28зсз017086 0.6 1009346
22:00+28в2277100 0.8 1012279
6 марта, сб
сб601:00+27юв2380100 7.6 1011200
04:00+27вюв2378100 4.9 1009297
07:00+27св2278100 4.9 1011187
10:00+28ссз227358 0.0 1012275
13:00+29з347232 0.1 1010609
16:00+29з226953 0.4 1008894
19:00+28ссв127476 3.8 1010378
22:00+27св3380100 6.6 1012108